THOR ABLESTAR DEB, 3164

Orbit data source: Space-Track

THOR ABLESTAR DEB, 3164 is space debris in LEO originally from a launch on Thu, 29 Jun 1961 UTC launched from the Air Force Eastern Test Range (AFETR). Debris objects in space refer to the collection of defunct objects orbiting the Earth. Examples of debris include non-operational satellites, rocket bodies, and fragments generated from explosions, collisions, or faulty payload assembly.

Loading next visibility...
Identifier
3164, 1961-015HZ
Orbit
LEO
Country
Flag of USUS
Related business
Manufacturer
Unknown
Mission
Spacecraft
Bus & Motor
Unknown
Mass
Unknown
Launch date (UTC)
1961-06-29 (64 years ago)
Launch vehicle
Unknown
Launch site
Air Force Eastern Test Range (AFETR)
Object type
Payload
Rocket body
Debris
Shape & HBR
Unknown shape, 1.1 m
Radar Cross Section
Small (<0.1 m²)

Expand to show TLE details & history
Last TLE update: 18 hours ago

TLE from 18 hours ago
0 THOR ABLESTAR DEB
1 03164U 61015HZ  25300.44032197  .00001219  00000-0  81160-3 0  9999
2 03164  66.7465 312.1044 0053550 217.8410 141.8906 14.03916386 55130
Epoch: 2025-10-27T10:34Z
TLE epoch observation values (Epoch: 2025-10-27T10:34:03.818Z)
Latitude
-0.00002°
Longitude
117.54635°
Altitude
913.015 km
Speed
7.38 km/s
True Right ascension
20h 48m 25s
True Declination
0° 00' 00"
Sunlit
Object was in daylight at epoch
Visualization orbit readout
Latitude
Unknown
Longitude
Unknown
Altitude
Unknown
Speed
Unknown
Apparent Right ascension
Unknown
Apparent Declination
Unknown
Sunlit
N/A
Visualization observer readout
Local Sidereal Time
00:16:55
Azimuth
Unknown
Elevation
Unknown
Doppler factor
Unknown
Orbital elements
Apogee altitude
917.514 km
Perigee altitude
839.794 km
Semi-major axis
7,256.791 km
Eccentricity
0.00536
Inclination
66.7465°
RAAN
312.1044°
Arg. of periapsis
217.841°
True anomaly
142.26733°
Mean anomaly
141.8906°
Eccentric anomaly
142.07916°
Mean motion
3.51096 °/min
Orbital period
102.54 mins
BSTAR
0.0008116
Loading maneuver chart data...
Computing Atmospheric mass density...

Documentation

Showing up to 5 results
|